CAPE
1 1 0 nan nan nan 0 nan 0 0 0 0 0 0 1 0 0 0 0 0 0 nan 0 0 0 nan nan 3 3 3 3 3 4 4 5 8 11 11 13 14 14 13 17 20 20 21 20 19 19 17 16 18 24 24 29 33 33 43 47 51 51 53 55 58 58 62 59 56 49 49 44 37 30 30 23 22 16 16 15 18 18 22 25 28 28 29
0 0 0 nan nan nan 0 nan nan nan 0 0 0 0 0 0 0 0 0 0 0 nan 0 nan nan nan nan nan 1 1 1 1 3 3 4 7 9 9 10 13 13 17 18 19 19 18 14 15 15 13 13 16 18 18 20 26 26 32 35 39 39 37 38 42 42 45 44 37 35 35 30 25 20 20 16 13 15 15 19 21 21 24 26 29 29 32
0 0 0 nan nan nan 0 nan 0 0 nan nan 1 1 0 0 0 0 1 0 0 nan nan nan nan nan nan nan 0 0 0 0 2 2 5 11 13 13 12 16 16 14 10 9 9 10 10 9 9 12 11 13 15 15 16 21 21 28 31 31 31 32 34 34 34 35 34 32 31 31 28 25 22 22 20 20 22 22 24 25 25 27 29 32 32 37
0 0 0 0 0 nan 0 0 nan nan nan nan nan nan nan nan 1 1 1 0 0 nan nan nan nan nan nan nan nan nan 2 4 7 7 9 12 11 11 10 8 8 6 4 4 4 4 4 5 5 6 8 11 14 14 19 20 20 24 28 27 27 27 26 28 28 26 29 25 26 26 26 27 28 28 28 31 33 33 37 36 36 37 37 39 39 42
nan 0 1 1 1 0 0 0 nan nan 0 nan nan nan nan nan 1 1 nan nan nan nan nan nan nan nan nan nan nan nan 3 8 9 9 12 8 5 5 2 1 1 1 0 1 1 1 2 4 4 8 11 15 18 18 22 23 23 22 20 22 22 23 25 21 21 16 15 14 13 13 15 19 24 24 28 31 34 34 38 36 36 37 37 40 40 42
nan 0 1 1 1 1 2 1 2 2 2 1 1 1 1 nan nan nan nan nan nan nan nan nan nan nan nan nan 0 0 1 4 7 7 6 1 nan nan nan nan nan nan nan nan nan 1 3 6 6 12 18 23 24 24 23 26 26 19 17 15 15 14 12 10 10 9 8 8 10 10 13 15 20 20 22 25 29 29 33 36 36 36 38 40 40 41
1 4 2 2 2 2 2 3 3 3 2 4 2 2 nan nan nan nan nan nan nan nan nan nan nan nan nan nan nan nan nan nan 1 1 nan nan nan nan nan nan nan nan nan nan nan 0 2 8 8 11 16 17 17 17 15 13 13 11 9 7 7 7 6 6 6 5 6 5 6 6 9 12 14 14 16 18 22 22 24 27 27 30 35 35 35 38
1 1 nan nan nan nan nan nan 0 0 nan nan nan nan nan nan nan nan nan nan nan nan nan nan nan nan nan nan nan nan nan nan nan nan nan nan nan nan nan nan nan nan nan nan nan nan 0 2 2 4 5 5 7 7 9 7 7 5 2 1 1 0 1 0 0 1 2 2 4 4 4 5 7 7 10 12 13 13 13 17 17 21 25 29 29 32
nan nan nan nan nan nan nan nan nan nan nan nan nan nan nan nan nan nan nan nan nan nan nan nan nan nan nan nan nan nan nan nan nan nan nan nan nan nan nan nan nan nan nan nan nan nan 0 1 1 2 2 3 4 4 5 4 4 2 0 nan nan nan nan nan nan nan 0 1 2 2 3 5 6 6 9 10 10 10 11 14 14 20 25 30 30 35
nan nan nan nan nan nan nan nan nan nan nan nan nan nan nan nan nan nan nan nan nan nan nan nan nan nan nan nan nan nan nan nan nan nan nan nan nan nan nan nan nan nan nan nan nan 0 0 1 1 1 2 3 3 3 3 1 1 nan nan nan nan nan nan nan nan nan nan 1 3 3 5 7 8 8 11 13 12 12 12 17 17 21 25 32 32 36
nan nan nan nan nan nan nan nan nan nan nan nan nan nan nan nan nan nan nan nan nan nan nan nan nan nan nan nan nan nan nan nan nan nan nan nan nan nan nan nan nan nan nan nan nan nan nan nan nan 0 1 1 0 0 nan nan nan nan nan nan nan nan nan nan nan nan 0 2 5 5 7 9 13 13 16 15 14 14 15 18 18 22 26 31 31 37
nan nan nan nan nan nan nan nan nan nan nan nan nan nan nan nan nan nan nan nan nan nan nan nan nan nan nan nan nan nan nan nan nan nan nan nan nan nan nan nan nan nan nan nan nan nan nan nan nan nan nan nan nan nan nan nan nan nan nan nan nan nan nan nan nan 0 2 6 8 8 9 11 14 14 18 16 14 14 16 19 19 21 25 31 31 37
nan nan nan nan nan nan nan nan nan nan nan nan nan nan nan nan nan nan nan nan nan nan nan nan nan nan nan nan nan nan nan nan nan nan nan nan nan nan nan nan nan nan nan nan nan nan nan nan nan nan nan nan nan nan nan nan nan nan nan nan nan nan nan 1 1 3 5 8 8 8 10 11 13 13 18 15 15 15 16 19 19 21 23 27 27 33
nan nan nan nan nan nan nan nan nan nan nan nan nan nan nan nan nan nan nan nan nan nan nan nan nan nan nan nan nan nan nan nan nan nan nan nan nan nan nan nan nan nan nan nan nan nan nan nan nan nan nan nan nan nan nan nan nan nan nan nan nan nan 1 3 3 4 6 8 8 8 9 11 14 14 18 16 16 16 17 20 20 21 21 24 24 25
nan nan nan nan nan nan nan nan nan nan nan nan nan nan nan nan nan nan nan nan nan nan nan nan nan nan nan nan nan nan nan nan nan nan nan nan nan nan nan nan nan nan nan nan nan nan nan nan nan nan nan nan nan nan nan nan nan nan nan 0 0 1 2 4 4 4 6 8 10 10 10 11 13 13 15 18 18 18 18 19 19 19 20 21 21 23
nan nan nan nan nan nan nan nan nan nan nan nan nan nan nan nan nan nan nan nan nan nan nan nan nan nan nan nan nan nan nan nan nan nan nan nan nan nan nan nan nan nan nan nan nan nan nan nan nan nan nan nan nan nan nan nan nan nan 0 1 1 1 2 3 3 4 6 8 10 10 12 13 13 13 15 16 17 17 18 18 18 17 18 20 20 21
nan nan nan nan nan nan nan nan nan nan nan nan nan nan nan nan nan nan nan nan nan nan nan nan nan nan nan nan nan nan nan nan nan nan nan nan nan nan nan nan nan nan nan nan nan nan nan nan nan nan nan nan nan nan nan nan nan 0 1 1 1 2 3 3 3 5 6 8 9 9 11 13 13 13 13 13 15 15 15 16 16 16 18 20 20 21
nan nan nan nan nan nan nan nan nan nan nan nan nan nan nan nan nan nan nan nan nan nan nan nan nan nan nan nan nan nan nan nan nan nan nan nan nan nan nan nan nan nan nan nan nan nan nan nan nan nan nan nan nan nan nan nan nan 0 0 1 1 1 3 3 3 4 6 8 9 9 11 11 13 13 12 13 13 13 15 17 17 18 18 21 21 22
nan nan nan nan nan nan nan nan nan nan nan nan nan nan nan nan nan nan nan nan nan nan nan nan nan nan nan nan nan nan nan nan nan nan nan nan nan nan nan nan nan nan nan nan nan nan nan nan nan nan nan nan nan nan nan nan nan 0 0 0 0 1 2 3 3 3 5 7 8 8 9 10 12 12 13 13 14 14 16 17 17 19 20 22 22 22
nan nan nan nan nan nan nan nan nan nan nan nan nan nan nan nan nan nan nan nan nan nan nan nan nan nan nan nan nan nan nan nan nan nan nan nan nan nan nan nan nan nan nan nan nan nan nan nan nan nan nan nan nan nan nan nan nan nan 0 0 0 0 1 1 1 2 3 5 7 7 9 10 10 10 12 13 14 14 15 18 18 18 20 21 21 21
nan nan nan nan nan nan nan nan nan nan nan nan nan nan nan nan nan nan nan nan nan nan nan nan nan nan nan nan nan nan nan nan nan nan nan nan nan nan nan nan nan nan nan nan nan nan nan nan nan nan nan nan nan nan nan nan nan nan nan nan nan 0 0 1 1 1 3 4 7 7 8 9 10 10 11 12 13 13 14 17 17 17 19 20 20 20
nan nan nan nan nan nan nan nan nan nan nan nan nan nan nan nan nan nan nan nan nan nan nan nan nan nan nan nan nan nan nan nan nan nan nan nan nan nan nan nan nan nan nan nan nan nan nan nan nan nan nan nan nan nan nan nan nan nan nan nan nan nan 0 1 1 2 3 6 7 7 8 9 10 10 11 10 11 11 13 14 14 14 15 17 17 18
nan nan nan nan nan nan nan nan nan nan nan nan nan nan nan nan nan nan nan nan nan nan nan nan nan nan nan nan nan nan nan nan nan nan nan nan nan nan nan nan nan nan nan nan nan nan nan nan nan nan nan nan nan nan nan nan nan nan nan nan nan nan 0 1 1 3 5 6 7 7 8 7 8 8 9 11 10 10 11 12 12 12 14 16 16 17
nan nan nan nan nan nan nan nan nan nan nan nan nan nan nan nan nan nan nan nan nan nan nan nan nan nan nan nan nan nan nan nan nan nan nan nan nan nan nan nan nan nan nan nan nan nan nan nan nan nan nan nan nan nan nan nan nan nan nan nan nan nan 1 3 3 3 5 6 5 5 6 6 7 7 8 9 10 10 10 11 11 12 13 16 16 17
nan nan nan nan nan nan nan nan nan nan nan nan nan nan nan nan nan nan nan nan nan nan nan nan nan nan nan nan nan nan nan nan nan nan nan nan nan nan nan nan nan nan nan nan nan nan nan nan nan nan nan nan nan nan nan 0 0 nan 0 0 0 1 3 4 4 4 3 3 3 3 4 5 7 7 9 9 10 10 11 12 12 13 14 15 15 16
nan nan nan nan nan nan nan 11 21 21 nan nan nan nan nan nan nan nan nan nan nan nan nan nan nan 0 nan nan nan nan nan nan nan nan nan nan nan nan nan nan nan nan nan nan nan nan nan nan nan nan nan nan nan nan nan 0 0 0 0 1 1 2 2 2 2 1 1 1 2 2 4 6 8 8 9 9 10 10 12 13 13 13 14 14 14 15
6 nan 3 6 6 5 5 4 6 6 8 6 nan nan nan nan nan nan nan nan nan nan nan nan nan nan nan nan nan nan nan nan nan nan nan nan nan nan nan nan nan nan nan nan nan nan nan nan nan nan nan nan nan nan nan nan nan 1 1 0 0 0 0 0 0 0 0 1 2 2 5 7 9 9 10 11 12 12 13 14 14 14 14 14 14 15
0 nan nan nan nan nan nan nan nan nan 0 1 6 6 nan nan nan nan nan nan nan nan nan nan nan nan nan nan nan nan nan nan nan nan nan nan nan nan nan nan nan nan nan nan nan nan nan nan nan nan nan nan nan nan nan nan nan nan nan nan nan nan nan nan nan nan 0 1 3 3 5 8 10 10 12 12 13 13 15 15 15 16 16 12 12 nan
nan nan nan nan nan nan nan nan nan nan 0 2 3 3 nan nan nan nan nan nan nan nan nan nan nan nan nan nan nan nan nan nan nan nan nan nan nan nan nan nan nan nan nan nan nan nan nan nan nan nan nan nan nan nan nan nan nan nan nan nan nan nan nan nan nan nan nan 1 3 3 5 8 10 10 12 13 14 14 15 17 17 17 14 8 8 nan
nan nan nan nan nan nan nan nan nan nan nan 5 6 6 nan nan nan nan nan nan nan nan nan nan nan nan nan nan nan nan nan nan nan nan nan nan nan nan nan nan nan nan nan nan nan nan nan nan nan nan nan nan nan nan nan nan nan nan nan nan nan nan nan nan nan nan nan 0 2 2 4 6 9 9 11 12 14 14 15 17 17 15 8 nan nan nan
nan nan nan nan nan nan nan nan nan nan nan nan nan nan 0 nan nan nan nan nan nan nan nan nan nan nan nan nan nan nan nan nan nan nan nan nan nan nan nan nan nan nan nan nan nan nan nan nan nan nan nan nan nan nan nan nan nan nan nan nan nan nan nan nan nan nan nan 0 1 1 2 4 6 6 8 11 12 12 15 17 17 13 4 nan nan nan
nan nan nan nan nan nan nan nan nan nan nan nan nan nan nan nan nan nan nan nan nan nan nan nan nan nan nan nan nan nan nan nan nan nan nan nan nan nan nan nan nan nan nan nan nan nan nan nan nan nan nan nan nan nan nan nan nan nan nan nan nan nan nan nan nan nan nan nan nan nan 0 1 1 1 3 5 7 7 9 10 10 10 0 nan nan nan
nan nan nan nan nan nan nan nan nan nan nan nan nan nan nan nan nan nan nan nan nan nan nan nan nan nan nan nan nan nan nan nan nan nan 0 nan nan nan nan nan nan nan nan nan nan nan nan nan nan nan nan nan nan nan nan nan nan nan nan nan nan nan nan nan nan nan nan nan nan nan nan nan nan nan 0 2 4 4 5 7 7 9 9 nan nan 0
nan nan nan nan nan nan nan nan nan nan nan nan nan nan nan nan nan nan nan nan nan nan nan nan nan nan nan nan nan nan nan nan nan nan 0 nan nan nan nan nan nan nan nan nan nan nan nan nan nan nan nan nan nan nan nan nan nan nan nan nan nan nan nan nan nan nan nan nan nan nan nan nan nan nan nan nan 0 0 3 6 6 10 15 11 11 6
nan nan nan nan nan nan nan nan nan nan nan nan nan nan nan nan nan nan nan nan nan nan nan nan nan nan nan nan nan nan nan nan nan nan 2 nan nan nan nan nan nan nan nan nan nan nan nan nan nan 1 nan nan nan nan nan nan nan nan nan nan nan nan nan nan nan nan nan nan nan nan nan nan nan nan nan nan nan nan 5 9 9 12 15 21 21 13
nan nan nan nan nan nan nan nan nan nan nan nan nan nan nan nan nan nan nan nan nan nan nan nan nan nan nan nan nan nan nan nan nan nan 4 0 nan nan nan nan nan 0 nan nan nan nan nan nan nan 1 0 nan nan nan nan nan nan nan nan nan nan nan nan nan nan nan nan nan nan nan nan nan nan nan nan nan 2 2 8 10 10 11 12 15 15 14
nan nan nan nan nan nan nan nan nan nan nan nan nan nan nan nan nan nan nan nan nan nan nan nan nan nan nan nan nan nan nan nan nan nan 1 0 nan nan nan nan nan 1 nan nan nan nan 0 nan nan nan nan nan nan nan nan nan nan nan nan nan nan nan nan nan nan nan nan nan nan nan nan nan nan nan nan nan 0 0 4 6 6 4 6 6 6 9
nan nan nan nan nan nan nan nan nan nan nan nan nan nan nan nan nan nan nan nan nan nan nan nan nan nan nan nan nan nan nan nan nan nan nan nan nan nan nan nan nan 0 0 nan nan nan nan nan nan nan nan nan nan nan 0 nan nan nan nan nan nan nan nan nan nan nan nan nan nan nan nan nan nan nan nan nan nan nan nan nan nan nan 1 2 2 5
nan nan nan nan nan nan nan nan nan nan nan nan nan nan nan nan nan nan nan nan nan nan nan nan nan nan nan nan 0 0 2 nan nan nan nan nan nan nan nan nan nan nan nan nan nan nan nan nan nan nan nan nan nan nan nan nan nan nan nan nan nan nan nan nan nan nan nan nan nan nan nan nan nan nan nan nan nan nan nan nan nan nan nan nan nan nan
nan nan nan nan nan nan nan nan nan nan nan nan nan nan nan nan nan nan nan nan nan nan nan nan nan nan nan nan nan nan nan nan nan nan nan nan nan nan nan nan nan nan nan nan nan nan nan nan nan nan 0 nan nan nan nan nan nan nan 1 nan nan nan nan nan nan nan nan nan nan nan nan nan nan nan nan nan nan nan nan nan nan nan nan nan nan nan
nan nan nan nan nan nan nan nan nan nan nan nan nan nan nan nan nan nan nan nan nan nan nan nan nan nan nan nan nan nan nan nan nan nan nan nan nan nan nan nan nan nan nan nan nan nan nan nan nan nan nan nan 0 0 0 nan nan 1 3 nan nan nan nan nan nan nan nan nan nan nan nan nan nan nan nan nan nan nan nan nan nan nan nan nan nan nan
nan nan nan nan nan nan nan nan nan nan nan nan nan nan nan nan nan nan nan nan nan nan nan nan nan nan nan nan nan nan nan nan nan nan nan nan nan nan nan nan nan nan nan nan nan nan nan nan nan nan nan nan nan nan nan nan nan 0 1 nan nan nan nan nan nan nan nan nan nan nan nan nan nan nan nan nan nan nan nan nan nan nan nan nan nan nan
nan nan nan nan nan nan nan 0 0 0 nan nan nan nan nan nan nan nan nan nan nan nan nan nan nan nan nan nan nan nan nan nan nan nan nan nan nan nan nan nan nan nan nan nan nan nan nan 0 0 0 nan 0 nan nan nan nan nan nan nan 0 0 nan nan nan nan nan nan nan nan nan nan nan nan nan nan nan nan nan nan nan nan nan nan nan nan nan
nan nan nan nan nan nan 0 nan nan nan nan nan nan nan nan nan nan nan nan nan nan nan nan nan nan nan nan nan nan nan nan nan nan nan nan nan nan nan nan nan nan nan nan nan nan nan nan nan nan nan nan nan nan nan nan nan nan nan nan nan nan nan nan nan nan nan nan nan nan nan nan nan nan nan nan nan nan nan nan nan nan nan nan nan nan nan
nan nan nan nan nan nan nan nan nan nan nan nan nan nan nan nan nan nan nan nan nan nan nan nan nan nan nan nan nan nan nan nan nan nan nan nan nan nan nan nan nan nan nan nan nan nan nan nan nan nan nan nan nan nan nan nan nan nan nan 0 0 nan nan nan nan nan nan nan nan nan nan nan nan nan nan nan nan nan nan nan nan nan nan nan nan nan
nan nan nan nan nan nan nan nan nan nan nan nan nan nan nan nan nan nan nan nan nan nan nan nan nan nan nan nan nan nan nan nan nan nan nan nan nan nan nan nan nan nan nan nan nan nan nan nan nan nan nan nan nan nan nan nan nan nan nan nan nan nan nan nan nan nan nan nan nan nan nan nan nan nan nan nan nan nan nan nan nan nan nan nan nan nan
nan nan nan nan nan nan nan nan nan nan nan nan nan nan nan nan nan nan nan nan nan nan nan nan nan nan nan nan nan nan nan nan nan nan nan nan nan nan nan nan nan nan nan nan nan nan nan nan nan nan nan nan nan nan nan nan nan nan nan nan nan nan nan nan nan nan nan nan nan nan nan nan nan nan nan nan nan nan nan nan nan nan nan nan nan nan
nan nan nan nan nan nan nan nan nan nan nan nan nan nan nan nan nan nan nan nan nan nan nan nan nan nan nan nan nan nan nan nan nan nan nan nan nan nan nan nan nan nan nan nan nan nan nan nan nan nan nan nan nan nan nan nan nan nan nan nan nan nan nan nan nan nan nan nan nan nan nan nan nan nan nan nan nan nan nan nan nan nan nan nan nan nan
0 nan nan nan nan nan nan nan nan nan nan nan nan nan nan nan 4 4 nan nan nan nan nan nan nan nan nan nan nan nan 0 0 nan nan nan nan nan nan nan nan nan nan nan nan nan nan nan nan nan nan nan nan nan nan nan nan nan nan nan nan nan nan nan nan nan nan nan nan nan nan nan nan nan nan nan nan nan nan nan nan nan nan nan nan nan nan
nan nan nan nan nan nan nan nan nan nan nan 0 nan nan nan nan nan nan nan nan nan nan nan nan nan nan nan nan nan nan nan nan nan nan nan nan nan nan nan nan nan nan nan nan nan nan nan nan nan nan nan nan nan nan nan nan nan nan nan nan nan nan nan nan nan nan nan nan nan nan nan nan nan nan nan nan nan nan nan nan nan nan nan nan nan nan
nan nan nan nan nan nan nan nan nan nan 0 nan 0 0 nan nan nan nan nan nan nan nan nan nan nan nan nan nan nan nan nan nan nan nan nan nan nan nan nan nan nan nan nan nan nan nan nan nan nan nan nan 10 nan nan nan nan nan nan nan nan nan nan nan nan nan nan nan nan nan nan nan nan nan nan nan nan nan nan nan nan nan nan nan nan nan nan
CIN
-0 -0 -0 nan nan nan -0 nan -0 -0 -0 -0 -0 -0 -0 -0 -0 -0 -0 -0 -0 nan -0 -0 -0 nan nan -0 -0 -0 -0 -0 -0 -0 -0 -0 -0 -0 -0 -0 -0 -0 -0 -0 -0 -0 -0 -0 -0 -0 -0 -0 -0 -0 -0 -0 -0 -0 -0 -0 -0 -0 -0 -0 -0 -0 -0 -0 -0 -0 -0 -0 -0 -0 -0 -0 -0 -0 -0 -0 -0 -0 -0 -0 -0 -0
-0 -0 -0 nan nan nan -0 nan nan nan -0 -0 -0 -0 -0 -0 -0 -0 -0 -0 -0 nan -0 nan nan nan nan nan -0 -0 -0 -0 -0 -0 -0 -0 -0 -0 -0 -0 -0 -0 -0 -0 -0 -0 -0 -0 -0 -0 -0 -0 -0 -0 -0 -0 -0 -0 -0 -0 -0 -0 -0 -0 -0 -0 -0 -0 -0 -0 -0 -0 -0 -0 -0 -0 -0 -0 -0 -0 -0 -0 -0 -0 -0 -0
-0 -0 -0 nan nan nan -0 nan -0 -0 nan nan -0 -0 -0 -0 -0 -0 -0 -0 -0 nan nan nan nan nan nan nan -0 -0 -0 -0 -0 -0 -0 -0 -0 -0 -0 -0 -0 -0 -0 -0 -0 -0 -0 -0 -0 -0 -0 -0 -0 -0 -0 -0 -0 -0 -0 -0 -0 -0 -0 -0 -0 -0 -0 -0 -0 -0 -0 -0 -0 -0 -0 -0 -0 -0 -0 -0 -0 -0 -0 -0 -0 -0
-0 -0 -0 -0 -0 nan -0 -0 nan nan nan nan nan nan nan nan -0 -0 -0 -0 -0 nan nan nan nan nan nan nan nan nan -0 -0 -0 -0 -0 -0 -0 -0 -0 -0 -0 -0 -0 -0 -0 -0 -0 -0 -0 -0 -0 -0 -0 -0 -0 -0 -0 -0 -0 -0 -0 -0 -0 -0 -0 -0 -0 -0 -0 -0 -0 -0 -0 -0 -0 -0 -0 -0 -0 -0 -0 -0 -0 -0 -0 -0
nan -0 -0 -0 -0 -0 -0 -0 nan nan -1 nan nan nan nan nan -0 -0 nan nan nan nan nan nan nan nan nan nan nan nan -0 -0 -0 -0 -0 -0 -0 -0 -0 -0 -0 -0 -0 -0 -0 -0 -0 -0 -0 -0 -0 -0 -0 -0 -0 -0 -0 -0 -0 -0 -0 -0 -0 -0 -0 -0 -0 -0 -0 -0 -0 -0 -0 -0 -0 -0 -0 -0 -0 -0 -0 -0 -0 -0 -0 -0
nan -0 -0 -0 -0 -0 -0 -0 -1 -1 -0 -0 -0 -0 -0 nan nan nan nan nan nan nan nan nan nan nan nan nan -0 -0 -0 -0 -0 -0 -0 -0 nan nan nan nan nan nan nan nan nan -0 -0 -0 -0 -0 -0 -0 -0 -0 -0 -0 -0 -0 -0 -0 -0 -0 -0 -0 -0 -0 -0 -0 -0 -0 -0 -0 -0 -0 -0 -0 -0 -0 -0 -0 -0 -0 -0 -0 -0 -0
-0 -0 -0 -0 -0 -0 -0 -0 -0 -0 -0 -0 -0 -0 nan nan nan nan nan nan nan nan nan nan nan nan nan nan nan nan nan nan -0 -0 nan nan nan nan nan nan nan nan nan nan nan -0 -0 -0 -0 -0 -0 -0 -0 -0 -0 -0 -0 -0 -0 -0 -0 -0 -0 -0 -0 -0 -0 -0 -0 -0 -0 -0 -0 -0 -0 -0 -0 -0 -0 -0 -0 -0 -0 -0 -0 -0
-0 -0 nan nan nan nan nan nan -0 -0 nan nan nan nan nan nan nan nan nan nan nan nan nan nan nan nan nan nan nan nan nan nan nan nan nan nan nan nan nan nan nan nan nan nan nan nan -0 -0 -0 -0 -0 -0 -0 -0 -0 -0 -0 -0 -0 -0 -0 -0 -0 -0 -0 -0 -0 -0 -0 -0 -0 -0 -0 -0 -0 -0 -0 -0 -0 -0 -0 -0 -0 -0 -0 -0
nan nan nan nan nan nan nan nan nan nan nan nan nan nan nan nan nan nan nan nan nan nan nan nan nan nan nan nan nan nan nan nan nan nan nan nan nan nan nan nan nan nan nan nan nan nan -0 -0 -0 -0 -0 -0 -0 -0 -0 -0 -0 -0 -0 nan nan nan nan nan nan nan -0 -0 -0 -0 -0 -0 -0 -0 -0 -0 -0 -0 -0 -0 -0 -0 -0 -0 -0 -0
nan nan nan nan nan nan nan nan nan nan nan nan nan nan nan nan nan nan nan nan nan nan nan nan nan nan nan nan nan nan nan nan nan nan nan nan nan nan nan nan nan nan nan nan nan -0 -0 -0 -0 -0 -0 -0 -0 -0 -0 -0 -0 nan nan nan nan nan nan nan nan nan nan -0 -0 -0 -0 -0 -0 -0 -0 -0 -0 -0 -0 -0 -0 -0 -0 -0 -0 -0
nan nan nan nan nan nan nan nan nan nan nan nan nan nan nan nan nan nan nan nan nan nan nan nan nan nan nan nan nan nan nan nan nan nan nan nan nan nan nan nan nan nan nan nan nan nan nan nan nan -0 -0 -0 -0 -0 nan nan nan nan nan nan nan nan nan nan nan nan -0 -0 -0 -0 -0 -0 -0 -0 -0 -0 -0 -0 -0 -0 -0 -0 -0 -0 -0 -0
nan nan nan nan nan nan nan nan nan nan nan nan nan nan nan nan nan nan nan nan nan nan nan nan nan nan nan nan nan nan nan nan nan nan nan nan nan nan nan nan nan nan nan nan nan nan nan nan nan nan nan nan nan nan nan nan nan nan nan nan nan nan nan nan nan -0 -0 -0 -0 -0 -0 -0 -0 -0 -0 -0 -0 -0 -0 -0 -0 -0 -0 -0 -0 -0
nan nan nan nan nan nan nan nan nan nan nan nan nan nan nan nan nan nan nan nan nan nan nan nan nan nan nan nan nan nan nan nan nan nan nan nan nan nan nan nan nan nan nan nan nan nan nan nan nan nan nan nan nan nan nan nan nan nan nan nan nan nan nan -0 -0 -0 -0 -0 -0 -0 -0 -0 -0 -0 -0 -0 -0 -0 -0 -0 -0 -0 -0 -0 -0 -0
nan nan nan nan nan nan nan nan nan nan nan nan nan nan nan nan nan nan nan nan nan nan nan nan nan nan nan nan nan nan nan nan nan nan nan nan nan nan nan nan nan nan nan nan nan nan nan nan nan nan nan nan nan nan nan nan nan nan nan nan nan nan -0 -0 -0 -0 -0 -0 -0 -0 -0 -0 -0 -0 -0 -0 -0 -0 -0 -0 -0 -0 -0 -0 -0 -0
nan nan nan nan nan nan nan nan nan nan nan nan nan nan nan nan nan nan nan nan nan nan nan nan nan nan nan nan nan nan nan nan nan nan nan nan nan nan nan nan nan nan nan nan nan nan nan nan nan nan nan nan nan nan nan nan nan nan nan -0 -0 -0 -0 -0 -0 -0 -0 -0 -0 -0 -0 -0 -0 -0 -0 -0 -0 -0 -0 -0 -0 -0 -0 -0 -0 -0
nan nan nan nan nan nan nan nan nan nan nan nan nan nan nan nan nan nan nan nan nan nan nan nan nan nan nan nan nan nan nan nan nan nan nan nan nan nan nan nan nan nan nan nan nan nan nan nan nan nan nan nan nan nan nan nan nan nan -0 -0 -0 -0 -0 -0 -0 -0 -0 -0 -0 -0 -0 -0 -0 -0 -0 -0 -0 -0 -0 -0 -0 -0 -0 -0 -0 -0
nan nan nan nan nan nan nan nan nan nan nan nan nan nan nan nan nan nan nan nan nan nan nan nan nan nan nan nan nan nan nan nan nan nan nan nan nan nan nan nan nan nan nan nan nan nan nan nan nan nan nan nan nan nan nan nan nan -0 -0 -0 -0 -0 -0 -0 -0 -0 -0 -0 -0 -0 -0 -0 -0 -0 -0 -0 -0 -0 -0 -0 -0 -0 -0 -0 -0 -0
nan nan nan nan nan nan nan nan nan nan nan nan nan nan nan nan nan nan nan nan nan nan nan nan nan nan nan nan nan nan nan nan nan nan nan nan nan nan nan nan nan nan nan nan nan nan nan nan nan nan nan nan nan nan nan nan nan -0 -0 -0 -0 -0 -0 -0 -0 -0 -0 -0 -0 -0 -0 -0 -0 -0 -0 -0 -0 -0 -0 -0 -0 -0 -0 -0 -0 -0
nan nan nan nan nan nan nan nan nan nan nan nan nan nan nan nan nan nan nan nan nan nan nan nan nan nan nan nan nan nan nan nan nan nan nan nan nan nan nan nan nan nan nan nan nan nan nan nan nan nan nan nan nan nan nan nan nan -0 -0 -0 -0 -0 -0 -0 -0 -0 -0 -0 -0 -0 -0 -0 -0 -0 -0 -0 -0 -0 -0 -0 -0 -0 -0 -0 -0 -0
nan nan nan nan nan nan nan nan nan nan nan nan nan nan nan nan nan nan nan nan nan nan nan nan nan nan nan nan nan nan nan nan nan nan nan nan nan nan nan nan nan nan nan nan nan nan nan nan nan nan nan nan nan nan nan nan nan nan -0 -0 -0 -0 -0 -0 -0 -0 -0 -0 -0 -0 -0 -0 -0 -0 -0 -0 -0 -0 -0 -0 -0 -0 -0 -0 -0 -0
nan nan nan nan nan nan nan nan nan nan nan nan nan nan nan nan nan nan nan nan nan nan nan nan nan nan nan nan nan nan nan nan nan nan nan nan nan nan nan nan nan nan nan nan nan nan nan nan nan nan nan nan nan nan nan nan nan nan nan nan nan -0 -0 -0 -0 -0 -0 -0 -0 -0 -0 -0 -0 -0 -0 -0 -0 -0 -0 -0 -0 -0 -0 -0 -0 -0
nan nan nan nan nan nan nan nan nan nan nan nan nan nan nan nan nan nan nan nan nan nan nan nan nan nan nan nan nan nan nan nan nan nan nan nan nan nan nan nan nan nan nan nan nan nan nan nan nan nan nan nan nan nan nan nan nan nan nan nan nan nan -0 -0 -0 -0 -0 -0 -0 -0 -0 -0 -0 -0 -0 -0 -0 -0 -0 -0 -0 -0 -0 -0 -0 -0
nan nan nan nan nan nan nan nan nan nan nan nan nan nan nan nan nan nan nan nan nan nan nan nan nan nan nan nan nan nan nan nan nan nan nan nan nan nan nan nan nan nan nan nan nan nan nan nan nan nan nan nan nan nan nan nan nan nan nan nan nan nan -0 -0 -0 -0 -0 -0 -0 -0 -0 -0 -0 -0 -0 -0 -0 -0 -0 -0 -0 -0 -0 -0 -0 -0
nan nan nan nan nan nan nan nan nan nan nan nan nan nan nan nan nan nan nan nan nan nan nan nan nan nan nan nan nan nan nan nan nan nan nan nan nan nan nan nan nan nan nan nan nan nan nan nan nan nan nan nan nan nan nan nan nan nan nan nan nan nan -0 -0 -0 -0 -0 -0 -0 -0 -0 -0 -0 -0 -0 -0 -0 -0 -0 -0 -0 -0 -0 -0 -0 -0
nan nan nan nan nan nan nan nan nan nan nan nan nan nan nan nan nan nan nan nan nan nan nan nan nan nan nan nan nan nan nan nan nan nan nan nan nan nan nan nan nan nan nan nan nan nan nan nan nan nan nan nan nan nan nan -0 -0 nan -0 -0 -0 -0 -0 -0 -0 -0 -0 -0 -0 -0 -0 -0 -0 -0 -0 -0 -0 -0 -0 -0 -0 -0 -0 -0 -0 -0
nan nan nan nan nan nan nan -0 -0 -0 nan nan nan nan nan nan nan nan nan nan nan nan nan nan nan -1 nan nan nan nan nan nan nan nan nan nan nan nan nan nan nan nan nan nan nan nan nan nan nan nan nan nan nan nan nan -0 -0 -0 -0 -0 -0 -0 -0 -0 -0 -0 -0 -0 -0 -0 -0 -0 -0 -0 -0 -0 -0 -0 -0 -0 -0 -0 -0 -0 -0 -0
-0 nan -0 -0 -0 -0 -0 -0 -0 -0 -0 -0 nan nan nan nan nan nan nan nan nan nan nan nan nan nan nan nan nan nan nan nan nan nan nan nan nan nan nan nan nan nan nan nan nan nan nan nan nan nan nan nan nan nan nan nan nan -0 -0 -0 -0 -0 -0 -0 -0 -0 -0 -0 -0 -0 -0 -0 -0 -0 -0 -0 -0 -0 -0 -0 -0 -0 -0 -0 -0 -0
-2 nan nan nan nan nan nan nan nan nan -0 -0 -0 -0 nan nan nan nan nan nan nan nan nan nan nan nan nan nan nan nan nan nan nan nan nan nan nan nan nan nan nan nan nan nan nan nan nan nan nan nan nan nan nan nan nan nan nan nan nan nan nan nan nan nan nan nan -0 -0 -0 -0 -0 -0 -0 -0 -0 -0 -0 -0 -0 -0 -0 -0 -0 -0 -0 nan
nan nan nan nan nan nan nan nan nan nan -0 -0 -0 -0 nan nan nan nan nan nan nan nan nan nan nan nan nan nan nan nan nan nan nan nan nan nan nan nan nan nan nan nan nan nan nan nan nan nan nan nan nan nan nan nan nan nan nan nan nan nan nan nan nan nan nan nan nan -0 -0 -0 -0 -0 -0 -0 -0 -0 -0 -0 -0 -0 -0 -0 -0 -0 -0 nan
nan nan nan nan nan nan nan nan nan nan nan -0 -0 -0 nan nan nan nan nan nan nan nan nan nan nan nan nan nan nan nan nan nan nan nan nan nan nan nan nan nan nan nan nan nan nan nan nan nan nan nan nan nan nan nan nan nan nan nan nan nan nan nan nan nan nan nan nan -0 -0 -0 -0 -0 -0 -0 -0 -0 -0 -0 -0 -0 -0 -0 -0 nan nan nan
nan nan nan nan nan nan nan nan nan nan nan nan nan nan -0 nan nan nan nan nan nan nan nan nan nan nan nan nan nan nan nan nan nan nan nan nan nan nan nan nan nan nan nan nan nan nan nan nan nan nan nan nan nan nan nan nan nan nan nan nan nan nan nan nan nan nan nan -0 -0 -0 -0 -0 -0 -0 -0 -0 -0 -0 -0 -0 -0 -0 -2 nan nan nan
nan nan nan nan nan nan nan nan nan nan nan nan nan nan nan nan nan nan nan nan nan nan nan nan nan nan nan nan nan nan nan nan nan nan nan nan nan nan nan nan nan nan nan nan nan nan nan nan nan nan nan nan nan nan nan nan nan nan nan nan nan nan nan nan nan nan nan nan nan nan -0 -0 -0 -0 -0 -0 -0 -0 -0 -0 -0 -0 -11 nan nan nan
nan nan nan nan nan nan nan nan nan nan nan nan nan nan nan nan nan nan nan nan nan nan nan nan nan nan nan nan nan nan nan nan nan nan -16 nan nan nan nan nan nan nan nan nan nan nan nan nan nan nan nan nan nan nan nan nan nan nan nan nan nan nan nan nan nan nan nan nan nan nan nan nan nan nan -0 -0 -0 -0 -0 -0 -0 -0 -0 nan nan -12
nan nan nan nan nan nan nan nan nan nan nan nan nan nan nan nan nan nan nan nan nan nan nan nan nan nan nan nan nan nan nan nan nan nan -12 nan nan nan nan nan nan nan nan nan nan nan nan nan nan nan nan nan nan nan nan nan nan nan nan nan nan nan nan nan nan nan nan nan nan nan nan nan nan nan nan nan -0 -0 -0 -0 -0 -0 -0 -0 -0 -4
nan nan nan nan nan nan nan nan nan nan nan nan nan nan nan nan nan nan nan nan nan nan nan nan nan nan nan nan nan nan nan nan nan nan -7 nan nan nan nan nan nan nan nan nan nan nan nan nan nan -0 nan nan nan nan nan nan nan nan nan nan nan nan nan nan nan nan nan nan nan nan nan nan nan nan nan nan nan nan -0 -0 -0 -0 -0 -0 -0 -0
nan nan nan nan nan nan nan nan nan nan nan nan nan nan nan nan nan nan nan nan nan nan nan nan nan nan nan nan nan nan nan nan nan nan -0 -18 nan nan nan nan nan -8 nan nan nan nan nan nan nan -0 -0 nan nan nan nan nan nan nan nan nan nan nan nan nan nan nan nan nan nan nan nan nan nan nan nan nan -0 -0 -0 -0 -0 -0 -0 -0 -0 -0
nan nan nan nan nan nan nan nan nan nan nan nan nan nan nan nan nan nan nan nan nan nan nan nan nan nan nan nan nan nan nan nan nan nan -15 -25 nan nan nan nan nan -4 nan nan nan nan -3 nan nan nan nan nan nan nan nan nan nan nan nan nan nan nan nan nan nan nan nan nan nan nan nan nan nan nan nan nan -2 -2 -0 -0 -0 -0 -0 -0 -0 -0
nan nan nan nan nan nan nan nan nan nan nan nan nan nan nan nan nan nan nan nan nan nan nan nan nan nan nan nan nan nan nan nan nan nan nan nan nan nan nan nan nan -5 -5 nan nan nan nan nan nan nan nan nan nan nan -1 nan nan nan nan nan nan nan nan nan nan nan nan nan nan nan nan nan nan nan nan nan nan nan nan nan nan nan -0 -0 -0 -0
nan nan nan nan nan nan nan nan nan nan nan nan nan nan nan nan nan nan nan nan nan nan nan nan nan nan nan nan -18 -18 -10 nan nan nan nan nan nan nan nan nan nan nan nan nan nan nan nan nan nan nan nan nan nan nan nan nan nan nan nan nan nan nan nan nan nan nan nan nan nan nan nan nan nan nan nan nan nan nan nan nan nan nan nan nan nan nan
nan nan nan nan nan nan nan nan nan nan nan nan nan nan nan nan nan nan nan nan nan nan nan nan nan nan nan nan nan nan nan nan nan nan nan nan nan nan nan nan nan nan nan nan nan nan nan nan nan nan -1 nan nan nan nan nan nan nan -0 nan nan nan nan nan nan nan nan nan nan nan nan nan nan nan nan nan nan nan nan nan nan nan nan nan nan nan
nan nan nan nan nan nan nan nan nan nan nan nan nan nan nan nan nan nan nan nan nan nan nan nan nan nan nan nan nan nan nan nan nan nan nan nan nan nan nan nan nan nan nan nan nan nan nan nan nan nan nan nan -2 -2 -2 nan nan -0 -0 nan nan nan nan nan nan nan nan nan nan nan nan nan nan nan nan nan nan nan nan nan nan nan nan nan nan nan
nan nan nan nan nan nan nan nan nan nan nan nan nan nan nan nan nan nan nan nan nan nan nan nan nan nan nan nan nan nan nan nan nan nan nan nan nan nan nan nan nan nan nan nan nan nan nan nan nan nan nan nan nan nan nan nan nan -1 -0 nan nan nan nan nan nan nan nan nan nan nan nan nan nan nan nan nan nan nan nan nan nan nan nan nan nan nan
nan nan nan nan nan nan nan -13 -13 -13 nan nan nan nan nan nan nan nan nan nan nan nan nan nan nan nan nan nan nan nan nan nan nan nan nan nan nan nan nan nan nan nan nan nan nan nan nan -2 -2 -5 nan -7 nan nan nan nan nan nan nan -2 -2 nan nan nan nan nan nan nan nan nan nan nan nan nan nan nan nan nan nan nan nan nan nan nan nan nan
nan nan nan nan nan nan -15 nan nan nan nan nan nan nan nan nan nan nan nan nan nan nan nan nan nan nan nan nan nan nan nan nan nan nan nan nan nan nan nan nan nan nan nan nan nan nan nan nan nan nan nan nan nan nan nan nan nan nan nan nan nan nan nan nan nan nan nan nan nan nan nan nan nan nan nan nan nan nan nan nan nan nan nan nan nan nan
nan nan nan nan nan nan nan nan nan nan nan nan nan nan nan nan nan nan nan nan nan nan nan nan nan nan nan nan nan nan nan nan nan nan nan nan nan nan nan nan nan nan nan nan nan nan nan nan nan nan nan nan nan nan nan nan nan nan nan -1 -1 nan nan nan nan nan nan nan nan nan nan nan nan nan nan nan nan nan nan nan nan nan nan nan nan nan
nan nan nan nan nan nan nan nan nan nan nan nan nan nan nan nan nan nan nan nan nan nan nan nan nan nan nan nan nan nan nan nan nan nan nan nan nan nan nan nan nan nan nan nan nan nan nan nan nan nan nan nan nan nan nan nan nan nan nan nan nan nan nan nan nan nan nan nan nan nan nan nan nan nan nan nan nan nan nan nan nan nan nan nan nan nan
nan nan nan nan nan nan nan nan nan nan nan nan nan nan nan nan nan nan nan nan nan nan nan nan nan nan nan nan nan nan nan nan nan nan nan nan nan nan nan nan nan nan nan nan nan nan nan nan nan nan nan nan nan nan nan nan nan nan nan nan nan nan nan nan nan nan nan nan nan nan nan nan nan nan nan nan nan nan nan nan nan nan nan nan nan nan
nan nan nan nan nan nan nan nan nan nan nan nan nan nan nan nan nan nan nan nan nan nan nan nan nan nan nan nan nan nan nan nan nan nan nan nan nan nan nan nan nan nan nan nan nan nan nan nan nan nan nan nan nan nan nan nan nan nan nan nan nan nan nan nan nan nan nan nan nan nan nan nan nan nan nan nan nan nan nan nan nan nan nan nan nan nan
-1 nan nan nan nan nan nan nan nan nan nan nan nan nan nan nan -0 -0 nan nan nan nan nan nan nan nan nan nan nan nan -2 -3 nan nan nan nan nan nan nan nan nan nan nan nan nan nan nan nan nan nan nan nan nan nan nan nan nan nan nan nan nan nan nan nan nan nan nan nan nan nan nan nan nan nan nan nan nan nan nan nan nan nan nan nan nan nan
nan nan nan nan nan nan nan nan nan nan nan -0 nan nan nan nan nan nan nan nan nan nan nan nan nan nan nan nan nan nan nan nan nan nan nan nan nan nan nan nan nan nan nan nan nan nan nan nan nan nan nan nan nan nan nan nan nan nan nan nan nan nan nan nan nan nan nan nan nan nan nan nan nan nan nan nan nan nan nan nan nan nan nan nan nan nan
nan nan nan nan nan nan nan nan nan nan -0 nan -1 -1 nan nan nan nan nan nan nan nan nan nan nan nan nan nan nan nan nan nan nan nan nan nan nan nan nan nan nan nan nan nan nan nan nan nan nan nan nan -0 nan nan nan nan nan nan nan nan nan nan nan nan nan nan nan nan nan nan nan nan nan nan nan nan nan nan nan nan nan nan nan nan nan nan
Wind_Speed
2 2 2 3 2 2 2 4 3 3 3 2 2 3 3 4 3 4 5 4 3 3 2 2 2 2 3 3 4 4 3 3 2 2 1 1 2 3 4 5 6 6 7 7 7 8 8 9 9 9 10 11 11 11 12 12 12 13 13 13 13 12 12 12 12 11 11 11 10 10 10 10 9 9 9 9 9 9 9 9 10 10 10 10 11 11
1 2 2 3 3 2 2 3 3 2 2 2 2 2 2 2 2 2 2 3 2 2 2 1 1 2 2 3 3 3 3 2 1 1 2 3 4 4 5 6 6 6 7 7 7 8 8 9 9 10 10 11 11 12 12 12 12 12 12 11 11 11 11 11 10 10 10 10 10 10 10 10 10 10 9 10 10 10 10 10 10 10 11 11 11 11
1 1 1 2 2 2 1 2 2 2 2 2 2 2 2 1 1 1 1 1 1 1 1 1 1 1 2 2 3 3 2 2 2 2 3 4 5 5 5 5 6 6 6 7 7 8 8 9 9 10 10 11 11 11 12 11 11 11 10 10 10 10 9 9 9 9 9 9 9 9 9 9 9 9 10 10 10 10 10 10 10 10 11 11 11 11
1 1 1 1 1 1 1 1 1 1 2 2 2 2 2 1 1 1 1 1 1 1 1 1 1 2 2 2 3 4 4 4 4 4 5 5 5 4 4 5 5 6 7 7 8 8 9 9 10 10 10 10 11 11 11 11 10 10 9 9 8 8 8 8 8 7 7 8 8 8 8 8 8 9 9 9 10 10 10 10 10 10 10 10 11 11
1 1 1 1 1 1 1 1 1 1 2 2 2 2 1 1 1 1 1 1 1 1 1 1 1 1 1 2 3 5 6 6 6 6 6 5 4 5 5 6 6 7 8 8 9 9 9 10 10 10 10 10 10 10 9 9 9 8 8 7 7 7 6 7 7 7 7 7 8 8 8 8 9 9 9 9 9 9 10 10 10 10 10 10 10 10
1 1 1 1 1 1 1 1 1 1 2 1 1 1 1 1 1 1 1 1 1 1 1 1 1 1 1 2 3 5 6 6 6 5 5 5 5 5 6 6 7 8 8 9 9 9 10 10 10 9 9 9 9 9 8 7 7 7 7 6 6 6 6 7 7 7 8 8 8 9 9 9 9 9 9 9 9 9 10 10 10 10 10 10 10 10
1 1 1 1 1 1 1 1 1 1 1 1 1 1 1 1 1 1 1 1 1 1 1 1 1 1 1 2 3 4 5 6 5 5 5 5 6 6 6 7 8 8 9 9 9 10 10 10 10 10 10 9 9 9 8 7 7 7 7 7 7 7 7 8 8 8 9 9 9 9 10 10 10 10 10 10 10 10 10 10 10 10 10 10 10 11
1 1 2 1 1 1 1 1 1 1 1 1 1 1 1 1 1 1 2 2 2 2 2 2 2 2 2 3 3 4 4 4 4 4 5 5 6 6 7 7 8 8 9 9 10 10 10 10 10 10 10 10 10 9 9 8 8 8 8 8 8 8 8 9 9 9 9 10 10 10 10 10 10 10 10 10 10 10 10 10 10 10 10 11 11 11
1 1 2 1 1 1 1 1 1 1 1 1 1 0 0 1 1 2 2 2 2 2 2 2 2 2 3 3 3 3 3 3 2 2 3 3 4 4 6 6 7 8 9 9 10 10 10 10 10 10 10 10 10 10 9 9 9 9 8 8 9 9 9 9 10 10 10 10 10 11 11 11 11 11 10 10 10 10 9 10 10 10 10 11 11 11
1 1 1 1 1 1 1 1 2 2 1 1 1 1 1 1 1 2 2 2 2 2 2 2 2 2 3 3 3 3 4 4 3 3 4 4 4 4 5 5 6 7 9 9 9 10 10 10 10 10 10 10 10 9 9 9 9 9 9 9 9 9 9 10 10 10 11 11 11 11 11 11 11 10 10 10 10 10 10 10 10 10 10 11 11 11
1 1 1 1 1 1 0 1 1 2 2 2 2 1 1 1 1 1 1 2 3 3 3 2 2 2 2 3 3 3 3 3 4 5 6 6 6 6 6 6 6 7 8 9 9 9 10 10 10 9 9 9 9 9 8 8 8 8 9 9 9 10 10 10 10 10 11 11 11 11 10 10 10 10 10 10 10 10 10 10 10 10 10 10 11 11
1 1 1 1 1 2 1 1 2 2 2 2 2 2 3 2 1 1 1 0 2 3 3 2 2 1 1 2 2 3 3 2 3 3 4 4 5 5 4 4 5 6 7 7 8 8 9 9 9 8 8 8 8 8 8 8 8 8 9 9 9 10 10 10 10 10 10 10 10 10 10 10 10 10 10 10 10 10 10 10 10 10 10 10 11 11
1 1 1 1 2 2 2 2 2 2 2 2 2 1 2 2 2 1 1 1 0 1 2 3 3 2 1 1 1 2 2 2 2 2 3 3 3 3 2 2 3 3 3 4 5 6 7 8 8 8 7 7 7 8 8 8 8 8 9 9 9 10 10 10 10 10 10 10 10 10 10 10 10 10 10 11 10 10 10 10 10 10 10 11 11 12
1 1 2 2 2 2 2 2 2 2 2 1 0 1 1 1 1 2 2 1 1 1 1 2 2 3 2 1 1 1 1 1 2 2 3 3 2 1 1 2 2 2 2 2 3 4 6 6 5 6 7 7 7 8 8 8 8 8 9 9 9 10 10 10 10 10 10 10 10 10 10 10 10 10 11 11 11 11 10 10 11 11 11 11 12 12
1 1 2 2 1 1 1 1 1 1 1 1 1 1 1 1 2 2 2 1 2 2 2 2 2 3 2 2 1 1 1 1 2 2 3 3 2 1 1 1 2 2 1 2 3 4 5 4 3 3 5 6 6 7 8 7 8 8 9 9 9 9 10 10 10 10 10 10 10 10 10 10 10 11 11 11 11 11 11 11 11 11 12 12 12 12
1 1 1 1 1 1 1 0 0 1 1 1 1 1 1 1 1 1 2 1 1 2 2 2 3 3 3 2 1 1 0 1 1 1 3 3 2 1 1 0 2 2 2 2 2 3 3 2 2 3 4 6 7 8 9 8 8 9 9 9 9 10 10 10 10 10 10 10 10 10 10 10 11 11 11 11 11 11 11 12 12 12 12 12 12 12
0 1 1 1 0 1 2 1 1 1 1 1 1 1 1 1 0 1 1 1 1 2 2 2 1 2 3 3 2 1 1 1 1 2 3 4 3 1 1 0 1 2 2 2 2 3 3 2 2 3 4 6 8 9 9 9 9 9 9 10 10 10 10 10 10 10 10 10 10 10 10 10 11 11 11 11 11 11 12 12 12 12 12 12 13 13
0 1 1 1 0 1 1 1 1 1 1 1 1 0 1 0 1 1 1 1 1 1 1 1 0 1 1 2 2 1 1 1 2 3 3 4 3 2 1 0 1 2 2 3 3 3 2 2 2 3 5 8 9 10 10 10 10 10 10 10 10 10 10 10 10 10 10 10 10 10 10 10 10 10 11 11 11 11 12 12 12 12 12 12 13 13
0 1 1 1 1 1 1 1 1 1 1 1 1 1 1 1 1 1 1 1 1 1 1 1 1 1 2 3 3 2 0 1 1 2 3 4 3 2 2 1 1 1 2 3 3 3 2 2 4 6 8 10 11 12 12 12 11 11 11 11 11 11 10 10 10 10 10 10 10 10 10 10 10 10 10 11 11 11 12 12 12 12 13 13 13 13
1 1 1 2 1 0 1 1 2 2 2 2 2 2 1 0 1 1 0 0 1 1 2 1 1 2 2 3 3 2 0 1 1 1 2 3 3 3 2 2 1 1 2 3 3 2 2 3 4 6 8 10 12 13 13 13 12 12 11 11 11 11 10 10 10 10 10 9 9 9 9 9 10 10 10 11 11 12 12 12 13 13 13 13 13 13
1 1 2 2 2 1 1 2 2 2 3 2 2 2 1 0 0 0 0 0 0 1 1 1 2 2 2 3 3 2 0 1 1 1 2 2 2 2 1 1 1 1 2 3 3 2 2 3 3 4 7 10 12 13 13 13 12 12 11 11 11 10 10 10 9 9 9 9 9 9 9 9 10 10 11 11 12 12 12 13 13 13 13 13 14 14
1 1 3 3 3 2 2 2 2 2 3 3 2 1 1 1 1 1 1 1 1 1 2 2 2 2 2 2 3 2 0 1 1 1 1 2 3 3 1 0 0 1 2 3 3 3 2 3 3 5 8 11 13 13 13 12 11 11 10 10 10 9 9 9 9 8 8 8 8 9 9 10 11 11 12 12 12 13 13 13 13 13 13 13 14 14
2 1 2 3 3 3 2 2 2 2 3 3 3 2 2 2 2 2 2 3 3 3 3 3 3 2 1 2 2 2 0 1 1 2 1 1 2 3 1 1 1 1 2 3 3 3 3 3 4 5 8 11 12 12 12 11 10 10 9 9 9 8 8 8 7 7 7 8 9 9 10 11 11 12 12 12 13 13 13 13 13 13 13 13 14 14
2 2 2 3 3 3 2 2 2 2 2 3 3 3 2 2 2 2 2 3 2 2 2 2 1 1 1 2 2 2 1 0 1 2 1 1 2 3 2 1 1 2 3 3 3 3 4 4 4 4 5 8 10 11 10 9 9 8 7 7 7 7 6 7 7 7 8 9 10 10 11 12 12 12 13 13 13 13 13 13 13 13 13 13 14 14
2 2 2 2 2 3 3 3 3 2 2 2 2 2 2 2 2 2 2 1 1 1 1 2 2 3 2 2 2 2 1 0 1 1 1 1 2 3 2 1 1 2 3 3 3 3 4 5 4 4 3 5 7 9 9 8 7 6 6 5 6 6 6 7 8 9 10 10 11 11 12 12 12 12 13 12 12 12 12 12 13 13 13 13 14 14
1 1 0 2 3 5 6 8 8 8 6 3 2 2 2 2 1 1 1 1 1 1 2 2 3 3 3 2 2 2 2 1 1 1 1 0 1 2 2 1 1 2 4 4 3 3 4 5 4 3 2 3 5 7 8 8 7 6 6 6 7 8 8 9 10 10 11 11 12 12 12 12 12 12 12 12 12 12 12 13 13 13 13 14 14 14
3 4 5 6 8 9 9 10 11 11 11 9 6 3 2 2 1 1 1 2 1 1 2 2 3 3 3 2 2 2 2 1 0 1 1 1 0 2 2 1 1 2 4 4 4 4 5 5 4 3 2 3 4 6 8 8 8 8 9 9 10 10 10 11 11 11 11 12 12 12 12 12 12 12 12 12 12 12 13 13 13 13 13 13 11 10
5 5 6 7 8 8 8 8 9 9 10 10 10 7 2 2 2 1 2 2 1 1 2 2 3 3 3 2 2 2 1 1 0 1 2 2 0 2 2 2 1 2 3 4 4 4 5 4 3 3 3 3 3 4 7 9 10 10 11 11 12 12 12 12 12 12 12 11 12 12 12 12 12 12 12 12 13 13 13 13 13 13 12 10 7 5
5 5 5 6 7 7 7 7 8 8 8 9 9 7 3 1 2 2 3 2 1 1 2 3 3 3 3 3 2 2 2 1 1 1 1 1 0 2 2 2 2 2 3 4 4 3 3 2 2 2 2 3 4 4 5 7 9 9 10 12 12 12 12 12 12 12 12 12 12 12 12 12 12 12 13 13 13 13 13 13 13 11 9 7 5 3
5 5 5 5 5 5 5 5 5 6 7 7 6 5 3 1 2 3 3 2 2 2 2 2 2 2 2 2 2 2 2 2 2 1 2 1 0 2 2 2 2 2 2 3 3 3 2 2 2 2 2 3 4 4 4 5 6 6 7 9 10 10 11 12 12 12 12 12 12 12 13 13 13 13 13 13 13 13 13 13 12 9 6 4 4 3
3 3 3 4 4 4 3 3 4 5 5 5 5 4 2 1 1 2 2 2 3 3 2 2 2 2 1 1 1 2 2 2 2 2 2 1 1 2 1 2 2 1 1 2 2 3 3 3 2 2 2 3 4 5 5 5 4 4 4 5 5 7 10 11 11 11 12 12 12 13 13 13 13 13 13 13 13 13 13 13 11 9 5 4 4 4
2 3 3 3 3 3 3 3 3 3 3 3 3 2 2 1 1 1 1 2 2 3 3 2 2 2 1 1 2 2 2 2 2 3 3 1 1 1 1 1 2 1 0 1 1 2 2 2 3 3 3 4 4 4 4 4 4 3 3 3 3 5 8 9 10 10 10 11 12 13 13 13 13 13 13 13 13 13 13 13 12 9 5 4 4 4
2 3 3 3 3 3 2 2 2 2 2 2 2 1 1 1 1 1 0 1 1 2 3 2 2 1 1 2 2 2 2 1 2 3 2 1 1 1 1 1 2 2 1 1 1 1 2 3 3 4 4 3 3 3 3 4 4 3 3 3 3 3 6 7 7 7 8 9 10 11 12 13 13 13 14 14 14 14 14 14 13 11 7 5 4 5
2 3 3 3 3 3 3 2 2 2 2 2 1 1 1 1 1 0 0 0 1 1 2 3 2 2 1 1 2 2 2 1 2 2 3 2 1 2 2 2 2 2 2 2 2 2 2 3 4 4 4 4 3 2 2 3 3 3 2 2 2 3 4 4 4 5 6 6 6 7 8 9 10 11 12 12 13 13 13 14 13 13 11 8 6 5
2 3 3 3 3 3 3 3 2 2 2 2 2 1 1 1 1 0 1 1 1 1 2 3 3 2 2 2 2 2 2 2 2 3 4 2 2 2 2 2 2 2 2 2 2 2 2 3 4 5 5 4 3 3 2 2 2 2 2 2 3 3 4 4 4 4 5 5 5 5 5 5 6 7 8 10 11 12 13 14 14 14 14 12 10 8
2 3 3 3 3 3 3 3 2 2 2 2 2 1 1 1 1 1 1 1 1 2 2 3 3 3 3 3 2 3 3 2 2 3 4 3 2 2 2 2 2 2 2 2 2 2 3 4 5 5 6 5 4 3 2 2 2 2 2 2 3 4 4 4 4 4 4 4 4 4 4 4 4 5 6 9 11 12 13 14 14 14 15 14 14 12
2 2 3 2 2 2 2 2 2 2 2 2 2 2 2 2 2 2 2 2 2 2 3 3 3 4 4 3 3 3 3 3 3 3 4 3 3 2 3 3 2 2 2 3 3 3 3 4 5 5 5 5 4 3 3 2 2 2 2 3 3 4 5 5 5 4 4 4 4 4 4 4 4 5 6 9 10 11 12 13 13 14 14 15 15 14
2 2 3 2 1 1 1 2 2 2 2 2 2 2 2 2 2 2 3 3 3 3 3 3 3 4 6 6 5 4 4 3 3 4 4 4 3 3 3 3 3 3 3 3 3 3 3 4 5 5 4 4 5 5 5 4 4 3 3 4 4 4 4 4 4 4 3 4 5 5 5 5 5 4 5 6 6 6 6 7 8 10 12 12 13 14
2 2 3 2 2 2 2 2 2 2 2 2 2 2 2 2 2 3 3 3 3 4 4 4 3 4 5 6 6 6 5 4 4 4 4 4 3 3 3 3 3 3 3 3 3 3 4 4 4 4 5 5 5 5 4 4 4 5 4 4 4 3 3 3 3 3 3 4 4 5 5 5 4 4 4 4 3 3 4 4 6 7 7 6 8 10
2 2 3 3 3 3 3 3 2 2 2 1 1 1 1 2 2 2 2 2 3 3 3 4 3 3 4 4 5 5 5 4 4 4 4 3 3 3 3 3 4 3 3 3 3 3 4 4 5 5 6 5 5 5 5 5 5 6 7 5 4 3 3 3 3 3 3 3 4 4 4 4 4 4 4 4 4 4 4 4 4 5 5 4 4 5
2 3 3 3 3 3 3 2 1 1 1 1 0 1 1 1 2 2 2 2 2 2 2 2 2 2 3 3 3 4 4 5 5 5 4 4 4 4 3 4 3 3 3 3 4 4 4 5 5 6 6 6 6 7 7 6 7 8 8 7 6 5 5 5 4 3 3 3 3 3 4 4 5 5 4 5 5 4 4 4 5 5 5 4 4 4
3 3 3 3 3 3 2 1 0 1 2 1 1 1 1 1 1 2 2 2 2 2 2 2 2 2 3 3 3 4 4 4 5 5 5 5 5 5 4 4 3 3 3 4 4 4 5 5 6 6 6 5 5 6 7 7 7 7 7 7 7 7 7 6 4 2 2 2 3 3 5 4 4 4 5 5 5 5 5 5 6 7 6 5 4 4
3 3 3 3 3 3 2 1 0 1 1 1 1 1 1 2 2 2 2 1 2 2 2 2 2 2 3 3 3 3 3 4 4 4 5 5 5 4 4 4 4 4 3 3 4 4 5 6 6 6 5 5 5 6 8 7 7 7 7 7 7 7 5 4 2 2 2 3 4 4 4 4 4 4 5 5 5 5 5 6 8 9 8 6 5 5
3 3 3 3 3 2 2 1 0 0 0 1 1 1 2 2 2 3 2 2 2 2 2 2 2 2 3 4 4 3 3 3 3 3 4 4 5 5 4 5 5 4 4 4 4 4 4 5 5 5 5 5 5 6 7 7 7 7 7 7 7 7 6 5 4 4 4 5 4 4 4 4 4 4 5 5 5 5 4 5 5 6 7 6 6 6
2 2 3 3 2 1 1 0 0 0 1 1 1 2 2 2 2 2 2 2 2 3 3 3 2 3 3 3 3 3 3 2 2 3 3 4 5 6 5 5 5 4 5 4 4 4 4 5 5 4 4 5 6 6 7 7 8 8 8 8 7 7 7 6 6 6 6 5 5 4 4 4 4 4 5 5 5 5 4 5 5 5 6 5 5 6
2 2 2 2 2 2 2 2 1 1 1 2 2 2 2 2 2 2 2 2 2 2 2 2 2 3 4 4 4 4 3 3 3 2 2 3 3 4 4 4 4 4 4 5 5 5 5 5 5 5 5 5 6 7 7 7 8 8 8 8 7 7 7 6 6 6 6 6 5 5 4 4 4 4 5 6 6 5 5 5 5 5 5 5 5 6
2 2 2 2 2 2 2 2 2 2 2 2 2 2 2 2 2 2 2 2 2 2 3 2 3 3 4 4 4 4 4 4 3 3 2 2 2 3 3 3 4 5 4 5 5 6 6 6 6 5 5 6 6 7 7 7 7 7 7 7 7 7 7 6 5 5 6 6 6 5 4 3 4 5 6 6 6 6 6 5 5 5 5 5 5 5
3 2 2 1 1 1 2 2 2 2 2 2 2 2 2 2 3 3 3 2 2 2 3 3 3 4 5 4 4 4 5 5 4 3 3 2 2 2 2 3 3 4 4 5 6 6 7 7 7 7 7 6 7 7 8 7 7 7 7 7 6 7 7 6 6 5 5 6 5 4 3 4 5 6 6 7 7 7 7 6 6 5 5 5 5 5
2 1 1 1 1 1 2 2 2 2 3 3 3 3 2 3 4 4 3 2 2 2 2 3 4 4 5 5 5 5 6 5 4 4 3 2 2 2 2 2 2 3 3 4 5 5 6 7 8 9 8 8 8 8 9 8 7 7 6 6 6 7 7 7 6 5 5 5 5 4 4 4 5 6 6 7 8 8 8 7 7 6 5 5 5 5
2 2 1 1 2 2 2 2 3 3 4 4 4 4 3 2 2 2 2 2 2 2 3 4 4 5 5 5 5 5 5 5 4 3 3 3 2 2 2 2 2 3 3 3 3 4 4 5 6 8 10 11 11 10 9 8 7 6 6 6 6 6 6 6 6 5 5 5 5 5 5 5 5 5 5 7 8 9 9 8 8 7 6 5 5 5
3 2 2 2 2 2 2 3 3 4 4 4 4 4 3 2 2 2 2 2 2 3 3 4 4 5 5 5 5 5 5 5 5 4 4 3 3 3 3 3 3 3 3 3 3 3 3 3 3 5 7 11 13 12 9 7 6 5 5 5 5 4 5 5 5 5 5 5 5 5 5 5 5 5 5 6 7 9 9 9 8 7 6 5 5 5
Wind_Direction
37 29 21 24 32 39 29 26 36 52 58 47 38 33 33 34 33 32 37 44 46 46 48 45 35 26 24 32 38 43 45 41 36 25 353 302 286 282 281 281 282 284 285 285 285 285 284 282 280 279 278 276 276 275 273 272 271 271 270 271 272 273 275 276 278 280 283 286 288 290 293 297 300 303 305 305 305 304 302 302 301 300 300 299 298 297
37 34 29 30 39 48 29 19 31 55 74 71 65 58 51 45 38 32 32 44 48 49 49 44 32 20 12 14 24 31 32 29 15 335 291 273 269 268 269 270 271 274 279 279 279 280 281 278 277 277 276 275 274 274 272 272 272 272 272 274 276 278 280 283 286 289 292 295 297 299 302 304 305 306 306 305 303 301 300 299 298 297 295 294 293 293
31 37 37 34 44 51 40 12 21 46 76 85 88 88 85 74 61 46 33 37 40 38 32 21 12 7 1 351 352 354 350 340 312 288 278 270 269 271 277 278 283 289 294 295 294 294 292 290 287 285 283 282 280 279 278 277 277 277 278 280 281 284 287 291 294 297 300 301 303 304 306 307 307 306 305 303 301 299 298 296 295 294 293 292 291 291
30 44 47 46 51 56 51 22 16 31 59 72 77 81 81 75 68 57 42 31 22 11 356 351 348 348 347 337 329 324 319 313 304 295 289 288 291 299 309 315 317 316 316 314 310 306 302 298 294 291 289 287 286 284 284 284 284 285 286 288 289 290 293 297 299 302 304 306 307 308 308 307 305 304 302 300 299 298 298 297 296 296 294 293 292 291
35 49 58 55 58 58 51 39 36 45 56 60 61 59 52 46 42 36 32 26 10 347 328 326 324 321 321 321 312 309 308 307 305 303 303 312 324 335 341 338 334 330 326 321 316 311 307 303 300 297 296 296 294 293 294 295 295 296 297 297 298 298 300 302 305 307 308 309 309 309 307 304 302 301 300 299 299 298 298 297 297 296 294 293 291 290
47 47 53 52 58 62 56 49 56 63 60 56 52 42 34 21 18 17 15 8 341 315 306 301 304 305 312 307 303 303 306 309 312 317 331 345 353 355 352 345 340 334 329 324 319 315 311 309 308 307 308 309 309 308 308 311 311 309 308 307 307 308 309 309 309 310 309 309 307 305 303 301 299 298 297 296 296 295 295 294 293 292 291 289 288 287
59 39 35 40 44 47 44 36 42 50 57 59 45 25 15 10 8 5 358 355 345 333 324 323 336 351 357 338 324 318 316 324 335 352 12 14 11 5 357 350 343 337 331 326 321 318 315 315 315 315 315 316 315 315 316 317 317 316 315 314 315 315 313 311 309 307 305 304 302 300 298 296 294 293 292 291 290 289 288 288 288 287 287 286 285 284
74 27 13 23 28 26 27 21 22 31 50 71 62 26 353 351 351 357 3 6 6 359 348 344 354 4 9 4 355 346 334 336 351 12 27 25 19 10 2 354 346 339 331 325 320 317 316 316 316 316 315 314 313 313 315 316 317 318 317 316 316 314 311 308 304 302 299 297 296 294 292 291 289 287 286 285 284 283 283 283 282 282 282 282 281 282
82 32 357 7 23 34 24 354 350 359 27 76 105 103 12 341 344 352 5 8 8 5 6 3 359 357 357 1 1 355 339 330 340 14 34 29 20 12 6 358 349 338 328 322 318 315 314 313 312 311 310 309 308 308 310 312 314 315 314 312 310 307 304 301 298 296 294 292 291 289 287 286 284 283 281 280 279 278 277 277 277 277 277 278 278 279
63 38 354 348 5 54 70 327 320 326 359 55 95 107 108 39 359 356 1 357 353 355 12 22 14 358 346 349 352 350 340 339 353 15 26 18 15 13 7 359 347 334 324 320 317 314 312 310 308 306 304 303 303 303 306 307 308 307 305 302 300 297 295 292 291 289 288 286 285 283 282 281 280 279 278 276 274 273 271 271 271 272 273 275 277 279
27 13 5 343 344 2 62 314 311 326 3 34 43 46 55 55 46 25 354 341 338 340 351 9 18 8 347 341 341 344 347 350 357 3 7 5 6 6 1 351 340 330 323 319 316 314 311 309 305 303 302 301 301 301 302 301 300 298 294 292 289 288 286 284 283 282 281 280 279 278 278 277 277 276 275 273 272 271 270 270 271 272 274 276 278 280
21 359 5 353 355 355 355 341 339 351 20 32 27 15 6 14 31 60 115 326 325 328 331 336 346 359 351 333 332 338 348 356 352 345 344 349 354 357 354 345 334 326 321 318 315 312 310 309 307 306 306 306 305 303 300 297 293 290 286 284 282 281 279 278 277 276 276 275 275 276 276 276 276 276 275 274 273 273 273 274 275 276 277 278 279 280
15 5 16 15 12 7 359 356 359 8 22 32 30 3 330 337 359 41 102 119 296 308 316 323 324 323 316 315 322 330 341 342 335 331 336 335 337 342 345 332 320 314 315 315 310 306 305 308 310 311 312 311 309 305 301 295 290 285 281 279 277 276 276 276 275 275 275 276 276 277 277 277 277 277 277 277 277 277 277 277 277 278 278 278 278 279
5 9 26 23 15 6 2 10 13 12 6 10 342 270 272 313 353 28 60 32 325 308 318 323 316 312 313 314 315 321 329 335 339 340 339 322 310 303 316 304 296 293 301 306 300 295 295 303 309 311 312 311 309 305 299 293 288 282 279 277 276 276 277 277 278 278 279 279 279 279 279 279 279 280 280 280 280 280 279 278 278 278 277 278 278 279
13 27 41 27 5 348 348 6 10 348 306 288 280 285 307 345 10 30 51 11 336 330 355 350 334 320 314 307 308 316 336 10 3 350 333 310 290 259 225 284 288 288 289 291 286 287 292 300 301 298 301 301 299 296 294 289 284 280 279 278 278 279 280 281 282 282 282 282 281 280 280 280 280 281 282 283 283 283 283 281 280 280 279 279 280 280
34 69 80 59 339 308 296 302 292 280 280 283 299 338 16 13 17 32 64 21 347 352 18 13 356 336 317 308 306 322 357 33 18 341 325 307 293 254 146 271 291 292 289 281 278 280 291 294 286 281 286 292 295 296 297 292 287 284 283 282 282 282 282 283 283 283 282 282 281 281 280 280 281 281 283 284 284 284 284 283 282 282 281 281 280 280
76 95 110 112 280 285 281 274 255 255 273 293 317 8 67 64 67 83 97 78 35 27 35 41 19 336 311 314 317 330 16 21 357 330 321 307 298 282 129 170 276 286 290 282 274 274 282 287 287 285 282 290 296 299 300 296 292 289 286 285 284 283 283 282 282 281 281 281 281 281 281 282 282 283 283 284 284 284 284 283 283 282 281 280 280 279
122 129 128 131 204 262 279 282 270 260 266 285 309 11 66 96 105 104 109 104 87 71 55 80 139 222 268 295 296 301 12 15 347 329 319 305 298 298 62 102 262 275 286 281 276 271 273 276 281 286 290 299 302 303 302 300 295 292 289 286 284 283 282 282 281 280 280 281 282 283 284 284 285 285 285 285 285 285 285 284 283 282 282 280 280 279
169 173 152 164 196 243 277 267 249 233 221 212 188 136 71 33 42 65 97 119 130 137 147 173 212 218 212 250 268 281 11 42 351 322 309 296 293 304 11 21 339 293 287 279 275 273 278 279 286 292 298 303 304 303 301 299 295 292 289 286 284 283 282 282 281 281 281 282 283 285 286 287 287 288 288 288 288 288 287 286 286 285 283 283 282 281
161 211 200 184 176 183 301 267 239 218 206 188 154 127 113 67 33 34 44 134 141 142 139 163 212 232 226 247 266 282 338 65 31 318 290 284 286 298 355 15 4 314 294 280 275 274 286 286 290 295 300 301 301 300 299 297 294 291 288 286 284 283 282 282 282 282 283 284 285 286 288 289 290 291 291 291 290 290 288 287 286 285 284 283 282 282
130 238 229 190 160 142 250 253 237 213 186 148 118 105 117 112 55 284 242 174 117 107 112 170 219 227 220 244 260 272 307 82 66 308 289 289 288 292 331 19 12 318 293 281 277 277 284 286 284 286 291 296 297 297 297 295 293 290 287 285 284 283 283 282 282 283 284 285 287 289 291 292 293 293 293 292 290 289 287 286 285 284 284 283 282 281
135 227 235 197 181 179 221 237 228 195 167 148 141 147 179 171 205 225 212 179 171 177 193 213 220 220 210 239 254 261 161 134 147 182 306 308 296 289 297 357 10 306 280 277 278 282 283 281 279 281 287 294 297 298 297 295 292 289 286 284 283 282 282 282 283 284 286 288 291 293 295 295 295 294 293 291 289 287 286 285 284 284 283 282 281 280
142 192 222 203 200 206 228 240 238 210 177 175 182 192 187 181 189 197 190 183 184 193 202 213 217 221 223 246 260 272 255 163 147 136 111 286 283 283 295 335 343 298 271 271 279 287 290 285 281 282 288 296 298 300 300 297 294 290 287 285 283 283 283 284 287 291 294 296 298 298 298 297 296 294 292 290 288 287 285 284 283 283 282 281 280 278
154 189 215 210 211 219 236 245 243 227 197 199 202 200 187 183 181 178 172 177 181 187 197 216 240 267 270 268 279 294 298 147 123 119 118 249 267 275 295 333 328 299 276 271 278 289 297 292 286 282 286 297 302 305 306 303 299 294 290 288 289 290 293 297 300 303 304 304 303 302 300 298 295 293 291 289 287 285 284 283 282 281 280 279 278 277
165 188 211 218 232 247 261 268 273 268 219 209 207 205 191 188 178 168 161 169 183 206 253 284 296 303 307 315 313 306 296 330 117 123 134 244 271 280 290 320 319 297 288 284 286 292 296 294 292 291 291 303 311 315 317 315 311 308 305 306 308 311 313 313 312 311 309 307 305 302 300 297 294 291 289 287 285 284 283 282 281 281 280 279 279 278
126 152 281 319 320 321 320 318 319 318 306 285 241 198 176 173 167 167 193 208 219 250 291 300 301 301 301 308 302 294 282 291 125 131 140 189 284 293 293 311 317 300 299 298 298 298 294 292 294 300 314 315 321 324 327 329 330 331 332 330 328 326 323 319 316 313 310 307 304 302 299 296 293 291 288 286 285 284 283 283 282 282 281 281 280 280
30 13 3 356 350 346 340 335 328 321 312 306 295 269 176 149 144 182 242 236 234 253 286 291 294 296 297 294 283 275 271 264 174 140 138 119 299 295 291 302 317 315 308 307 304 298 292 292 298 310 321 315 319 326 334 338 341 342 341 336 331 327 323 319 316 312 309 307 304 301 299 296 294 291 289 288 287 285 285 284 284 283 283 282 281 281
23 15 9 3 359 353 346 337 328 319 313 306 301 297 284 150 152 207 246 235 227 236 263 273 281 288 292 292 286 279 275 270 234 173 140 109 109 277 279 294 311 317 315 309 304 298 295 295 301 309 309 305 309 320 332 340 342 341 337 333 329 326 323 319 316 312 309 306 304 302 300 298 296 294 292 291 290 289 287 287 286 285 285 284 282 282
17 9 4 1 359 357 352 343 333 324 318 311 308 311 337 143 172 203 228 211 187 200 245 256 264 272 281 289 293 296 296 283 254 198 142 106 171 267 272 295 309 317 323 316 314 313 312 305 300 298 297 305 312 323 330 339 340 337 332 329 327 324 321 317 314 310 308 306 305 303 302 301 299 298 296 295 293 292 290 289 288 287 285 284 282 279
360 357 353 351 352 353 350 340 330 326 326 325 327 334 5 99 178 194 200 169 156 172 217 239 249 258 270 287 301 309 305 284 254 188 133 115 256 272 279 299 309 322 339 332 330 328 322 311 298 288 292 315 325 331 333 334 332 329 325 324 322 319 315 312 310 308 306 305 305 304 303 302 301 300 299 298 296 295 293 292 291 289 286 284 281 278
341 338 330 327 331 335 336 329 326 328 332 340 350 4 22 58 153 174 166 151 152 164 184 204 221 234 241 272 291 298 293 275 236 178 143 148 255 275 290 305 311 322 5 358 343 328 319 312 303 301 313 328 331 330 327 321 318 314 311 314 313 309 306 305 305 304 304 304 304 304 304 303 302 302 301 300 299 297 296 295 294 292 288 285 282 280
315 310 300 301 307 315 322 325 328 331 335 347 359 10 19 38 67 115 137 148 149 151 158 171 189 211 219 235 250 262 274 262 209 185 177 200 256 281 300 311 315 317 321 14 336 309 305 302 305 312 326 327 322 316 310 306 303 301 300 302 300 297 298 300 301 302 302 302 302 302 302 302 302 302 302 301 301 300 299 298 297 295 290 284 277 274
298 295 292 300 306 312 318 326 331 334 337 346 354 3 11 17 35 64 117 152 148 144 145 152 170 202 230 239 246 255 270 264 225 213 218 240 276 293 306 310 312 312 313 305 266 253 262 281 296 306 312 310 304 298 296 294 291 289 292 293 292 290 293 296 297 298 297 298 299 299 299 300 300 300 300 301 301 300 300 299 297 295 290 282 273 269
304 302 304 313 318 321 323 330 333 337 341 344 349 354 358 358 17 52 155 198 182 165 155 156 165 184 217 244 259 266 271 266 275 287 304 302 297 296 301 302 301 303 307 295 275 261 261 274 286 296 300 299 294 286 282 283 284 286 287 281 279 281 286 289 290 289 289 291 292 293 294 294 295 296 297 297 298 298 298 296 295 293 291 286 280 275
320 315 314 322 326 328 329 333 336 338 341 338 336 332 328 326 325 286 212 210 211 204 188 179 179 184 194 217 252 271 276 267 285 305 314 307 296 291 293 286 286 290 293 287 282 279 277 280 286 292 299 301 299 289 274 270 277 286 289 272 266 267 271 275 278 280 283 284 284 282 281 282 285 287 290 291 291 292 293 294 294 293 293 292 291 289
332 322 314 320 324 324 323 324 329 330 328 315 304 300 305 311 315 303 274 242 233 228 224 217 212 209 206 215 233 254 269 263 274 287 295 288 281 278 279 274 272 273 277 279 280 282 285 287 290 293 296 297 298 296 285 272 276 287 290 276 267 264 265 263 263 266 273 276 277 275 274 273 273 275 277 283 286 289 292 294 296 296 296 295 294 293
336 318 306 309 308 305 300 302 302 301 296 290 289 292 304 313 316 311 297 276 261 254 256 247 241 237 235 232 233 240 252 256 261 267 272 264 257 256 261 266 264 261 260 270 276 282 287 290 293 293 292 290 292 296 298 296 294 291 284 275 269 265 264 262 258 257 260 264 267 268 268 267 267 268 270 279 284 290 294 296 296 296 295 294 292 291
335 312 297 292 283 271 266 267 263 257 251 260 275 287 296 296 295 293 289 278 269 262 262 257 254 254 254 255 254 251 252 251 252 251 249 245 242 245 252 260 261 256 250 255 265 274 281 286 290 293 291 287 288 291 297 302 302 296 285 276 268 262 258 259 256 253 250 255 260 264 266 265 264 265 270 278 284 289 291 290 289 289 290 290 289 288
315 297 287 277 262 245 237 240 239 235 226 226 236 250 259 268 271 271 268 267 262 256 252 251 253 254 255 259 262 264 264 260 255 248 242 237 235 238 246 254 257 255 249 246 250 257 265 272 279 284 289 291 291 292 294 296 297 296 295 290 279 265 252 250 249 246 244 248 256 263 268 268 268 268 270 274 275 276 276 278 278 279 281 283 285 285
279 272 271 268 256 239 228 232 229 220 204 212 220 236 253 276 283 284 279 273 268 262 254 251 251 253 255 259 263 266 267 264 259 253 244 233 227 228 235 243 250 254 252 246 245 246 252 260 267 272 277 283 289 292 293 293 295 299 302 302 298 288 275 265 255 246 238 239 247 257 266 267 267 264 263 261 260 260 261 265 270 273 273 272 275 281
259 260 263 267 262 255 253 258 214 152 158 163 42 347 322 316 314 314 314 313 307 300 292 284 282 283 285 278 271 265 260 259 256 250 241 231 226 224 227 234 240 246 249 248 247 245 246 254 262 267 270 275 282 286 287 289 292 296 298 297 295 294 294 287 276 260 244 239 239 245 257 266 268 267 264 263 259 254 252 256 262 267 268 260 254 256
264 262 260 263 262 264 272 301 115 130 135 112 68 11 323 310 300 300 311 317 315 311 312 315 313 309 307 300 291 280 267 259 253 247 243 233 226 222 223 228 230 234 238 245 247 247 246 250 256 262 267 273 278 283 284 286 288 289 290 290 293 295 294 287 274 245 228 243 243 246 253 263 268 270 270 269 265 261 255 253 256 260 263 255 244 239
260 260 257 256 256 259 270 282 286 110 109 76 20 328 308 303 296 292 291 286 286 287 287 279 278 285 293 296 295 289 277 263 255 249 245 235 226 220 220 224 226 226 228 239 247 250 249 249 253 257 261 267 272 277 282 285 286 285 282 285 291 295 295 289 279 261 253 262 261 258 255 260 264 267 269 269 267 263 258 257 258 260 262 260 253 247
257 262 264 260 258 258 270 281 7 47 29 353 324 308 300 301 300 297 294 279 277 281 284 281 281 283 287 290 287 282 276 273 275 273 264 248 234 222 220 222 225 225 223 233 244 252 256 254 253 254 256 260 265 270 275 280 282 283 281 282 282 281 279 286 292 295 289 286 282 276 266 264 267 271 273 273 270 265 259 257 257 257 258 257 255 253
262 268 271 272 271 267 264 259 278 326 318 314 304 296 291 291 293 293 287 282 285 288 289 293 297 296 292 293 291 288 286 289 296 299 292 274 258 244 229 224 224 225 225 230 237 245 253 258 260 260 259 258 260 263 268 274 278 280 280 280 278 275 272 279 285 290 290 288 285 279 269 266 271 278 281 280 278 273 266 261 258 256 254 251 250 251
249 254 259 268 282 290 289 296 303 308 306 304 296 286 282 283 282 282 279 279 282 284 285 286 288 290 292 296 299 300 300 297 294 293 294 289 279 263 243 232 228 226 227 231 235 238 243 250 258 264 267 264 262 260 261 267 272 276 278 279 279 278 277 278 279 280 282 283 283 280 273 271 275 280 282 283 282 278 272 264 258 254 252 249 248 247
245 241 243 252 270 286 298 309 313 313 308 300 289 281 279 283 284 282 277 273 274 281 287 287 286 285 288 293 296 298 298 296 294 288 279 276 274 271 261 248 238 233 232 234 237 238 240 242 246 252 260 265 266 266 263 263 265 269 273 276 277 277 277 276 275 274 275 277 279 281 283 285 283 282 282 284 285 284 281 276 269 263 258 256 254 253
251 247 244 254 278 303 313 320 321 317 307 295 288 283 280 281 284 284 280 278 284 294 301 299 295 290 287 286 286 288 291 293 293 292 286 275 266 262 261 260 254 249 245 245 245 245 244 242 240 241 245 253 261 266 267 264 263 263 267 271 273 274 274 274 273 272 272 273 273 275 278 281 282 282 285 287 287 286 285 282 278 273 268 266 266 266
268 259 260 281 301 309 309 315 315 307 300 296 294 290 278 276 284 290 291 293 295 296 297 293 289 287 284 284 284 286 288 289 291 291 289 281 270 262 259 258 259 260 260 256 253 251 250 246 240 236 234 238 247 257 263 263 262 262 264 265 267 269 271 272 273 273 273 273 272 270 269 269 271 275 281 284 286 286 286 285 283 280 275 269 266 265
301 296 294 300 297 294 294 296 296 294 294 295 293 289 280 272 273 278 283 287 286 283 279 279 280 281 283 284 286 287 287 287 288 288 286 282 277 274 271 268 268 270 271 267 261 257 255 252 243 235 229 228 233 241 254 258 261 262 261 261 261 264 267 271 273 274 273 274 273 270 268 268 268 269 273 279 283 285 287 286 284 282 278 270 263 261
309 306 304 298 292 289 289 287 287 287 287 286 285 283 280 277 275 275 280 285 284 280 275 273 273 275 277 280 282 283 284 284 285 285 283 281 280 280 280 279 280 281 282 281 278 275 271 273 267 252 235 227 225 227 238 247 254 259 261 258 256 256 261 268 271 272 271 271 270 269 268 268 269 269 270 276 281 284 285 285 283 282 279 274 268 265